Terminal Aerodrome Forecast
Issued by NWS

Home | Current Version | Previous Version | Graphics & Text | Print | Product List | Glossary On
Versions: 1 2 3 4 5 6 7 8 9 10 11 12 13 14 15 16 17 18 19 20 21 22 23 24 25 26 27 28 29 30 31 32 33
000
FTUS43 KLOT 271738
TAFORD
TAF
KORD 271738Z 2718/2824 10012KT P6SM FEW050
     FM280000 08007KT P6SM SCT050
     FM281200 12004KT P6SM SKC
     FM281800 15010KT P6SM FEW050
     FM282000 15010G15KT P6SM SCT050
     FM282200 15010KT P6SM SCT050=

USA.gov is the U.S. government's official web portal to all federal, state and local government web resources and services.